Tillbaka till svenska Fidonet
English   Information   Debug  
FILM   0/18
FNEWS_PUBLISH   5090
FN_SYSOP   42250
FN_SYSOP_OLD1   71952
FTP_FIDO   0/2
FTSC_PUBLIC   0/13992
FUNNY   0/4886
GENEALOGY.EUR   0/71
GET_INFO   105
GOLDED   0/408
HAM   2366/16975
HOLYSMOKE   0/6791
HOT_SITES   0/1
HTMLEDIT   0/71
HUB203   466
HUB_100   264
HUB_400   39
HUMOR   0/29
IC   0/2851
INTERNET   0/424
INTERUSER   0/3
IP_CONNECT   719
JAMNNTPD   0/233
JAMTLAND   0/47
KATTY_KORNER   0/41
LAN   0/16
LINUX-USER   0/19
LINUXHELP   0/1155
LINUX   0/22471
LINUX_BBS   0/957
mail   18.68
mail_fore_ok   249
MENSA   0/341
MODERATOR   0/102
MONTE   0/992
MOSCOW_OKLAHOMA   0/1245
MUFFIN   0/783
MUSIC   0/321
N203_STAT   940
N203_SYSCHAT   313
NET203   321
NET204   69
NET_DEV   0/10
NORD.ADMIN   0/101
NORD.CHAT   0/2572
NORD.FIDONET   189
NORD.HARDWARE   0/28
NORD.KULTUR   0/114
NORD.PROG   0/32
NORD.SOFTWARE   0/88
NORD.TEKNIK   0/58
NORD   0/453
OCCULT_CHAT   0/93
OS2BBS   0/787
OS2DOSBBS   0/580
OS2HW   0/42
OS2INET   0/37
OS2LAN   0/134
OS2PROG   0/36
OS2REXX   0/113
OS2USER-L   207
OS2   0/4837
OSDEBATE   0/18996
PASCAL   0/490
PERL   0/457
PHP   0/45
POINTS   0/405
POLITICS   0/29554
POL_INC   0/14731
PSION   103
R20_ADMIN   1134
R20_AMATORRADIO   0/2
R20_BEST_OF_FIDONET   17
R20_CHAT   0/899
R20_DEPP   0/3
R20_DEV   400
R20_ECHO2   1992
R20_ECHOPRES   0/35
R20_ESTAT   0/719
R20_FIDONETPROG...
...RAM.MYPOINT
  0/2
R20_FIDONETPROGRAM   0/22
R20_FIDONET   0/248
R20_FILEFIND   0/24
R20_FILEFOUND   0/22
R20_HIFI   0/3
R20_INFO2   3886
R20_INTERNET   0/12940
R20_INTRESSE   0/60
R20_INTR_KOM   0/99
R20_KANDIDAT.CHAT   42
R20_KANDIDAT   28
R20_KOM_DEV   112
R20_KONTROLL   0/13380
R20_KORSET   0/18
R20_LOKALTRAFIK   0/24
R20_MODERATOR   0/1852
R20_NC   76
R20_NET200   245
R20_NETWORK.OTH...
...ERNETS
  0/13
R20_OPERATIVSYS...
...TEM.LINUX
  0/45
R20_PROGRAMVAROR   0/1
R20_REC2NEC   534
R20_SFOSM   0/341
R20_SF   0/108
R20_SPRAK.ENGLISH   0/1
R20_SQUISH   107
R20_TEST   2
R20_WORST_OF_FIDONET   21
RAR   0/9
RA_MULTI   106
RA_UTIL   0/162
REGCON.EUR   0/2072
REGCON   0/13
SCIENCE   0/1206
SF   0/239
SHAREWARE_SUPPORT   0/5146
SHAREWRE   0/14
SIMPSONS   0/169
STATS_OLD1   0/2539.065
STATS_OLD2   0/2530
STATS_OLD3   0/2395.095
STATS_OLD4   0/1692.25
SURVIVOR   0/495
SYSOPS_CORNER   0/3
SYSOP   0/84
TAGLINES   0/112
TEAMOS2   0/4530
TECH   0/2617
TEST.444   0/105
TRAPDOOR   0/19
TREK   0/755
TUB   0/290
UFO   0/40
UNIX   0/1316
USA_EURLINK   0/102
USR_MODEMS   0/1
VATICAN   0/2740
VIETNAM_VETS   0/14
VIRUS   0/378
VIRUS_INFO   0/201
VISUAL_BASIC   0/473
WHITEHOUSE   0/5187
WIN2000   0/101
WIN32   0/30
WIN95   0/4291
WIN95_OLD1   0/70272
WINDOWS   0/1517
WWB_SYSOP   0/419
WWB_TECH   0/810
ZCC-PUBLIC   0/1
ZEC   4

 
4DOS   0/134
ABORTION   0/7
ALASKA_CHAT   0/506
ALLFIX_FILE   0/1313
ALLFIX_FILE_OLD1   0/7997
ALT_DOS   0/152
AMATEUR_RADIO   0/1039
AMIGASALE   0/14
AMIGA   0/331
AMIGA_INT   0/1
AMIGA_PROG   0/20
AMIGA_SYSOP   0/26
ANIME   0/15
ARGUS   0/924
ASCII_ART   0/340
ASIAN_LINK   0/651
ASTRONOMY   0/417
AUDIO   0/92
AUTOMOBILE_RACING   0/105
BABYLON5   0/17862
BAG   135
BATPOWER   0/361
BBBS.ENGLISH   0/382
BBSLAW   0/109
BBS_ADS   0/5290
BBS_INTERNET   0/507
BIBLE   0/3563
BINKD   0/1119
BINKLEY   0/215
BLUEWAVE   0/2173
CABLE_MODEMS   0/25
CBM   0/46
CDRECORD   0/66
CDROM   0/20
CLASSIC_COMPUTER   0/378
COMICS   0/15
CONSPRCY   0/899
COOKING   42875
COOKING_OLD1   0/24719
COOKING_OLD2   0/40862
COOKING_OLD3   0/37489
COOKING_OLD4   0/35496
COOKING_OLD5   9370
C_ECHO   0/189
C_PLUSPLUS   0/31
DIRTY_DOZEN   0/201
DOORGAMES   0/2397
DOS_INTERNET   0/196
duplikat   6103
ECHOLIST   0/18295
EC_SUPPORT   0/318
ELECTRONICS   0/359
ELEKTRONIK.GER   1534
ENET.LINGUISTIC   0/13
ENET.POLITICS   0/4
ENET.SOFT   0/11701
ENET.SYSOP   34573
ENET.TALKS   0/32
ENGLISH_TUTOR   0/2000
EVOLUTION   0/1335
FDECHO   0/217
FDN_ANNOUNCE   0/7068
FIDONEWS   25344
FIDONEWS_OLD1   0/49742
FIDONEWS_OLD2   0/35949
FIDONEWS_OLD3   0/30874
FIDONEWS_OLD4   0/37224
FIDO_SYSOP   12979
FIDO_UTIL   0/180
FILEFIND   0/209
FILEGATE   0/212
Möte HAM, 16975 texter
 lista första sista föregående nästa
Text 4408, 908 rader
Skriven 2011-03-31 23:31:37 av Amsat List (1:323/120.0)
Ärende: [keps]  orb11090.amsa
=============================
[keps]  orb11090.amsa

Return-Path: <keps-bounces@amsat.org>
X-Rcpt: craig.healy@chowda.com
X-UIDL: 1301630551.1440

SB KEPS @ AMSAT  $ORB11090.O
Orbital Elements  11090.OSCAR

HR AMSAT ORBITAL ELEMENTS FOR OSCAR SATELLITES
FROM WA5QGD FORT WORTH,TX March 31, 2011
Send Subscribe/unsubscribe to KEPS at http://www.amsat.org/mailman/listinfo/kep
BID: ORB11090.O
TO ALL RADIO AMATEURS BT

Satellite: AO-07
Catalog number: 07530
Epoch time:      11089.78661474
Element set:    0041
Inclination:      101.3947 deg
RA of node:       099.4203 deg
Eccentricity:    0.0012099
Arg of perigee:   073.2067 deg
Mean anomaly:     287.0325 deg
Mean motion:   12.53581682 rev/day
Decay rate:       -2.7e-07 rev/day^2
Epoch rev:           66436
Checksum:              301

Satellite: FO-29
Catalog number: 24278
Epoch time:      11089.96383407
Element set:    0545
Inclination:      098.5350 deg
RA of node:       244.6778 deg
Eccentricity:    0.0351405
Arg of perigee:   099.9878 deg
Mean anomaly:     264.1104 deg
Mean motion:   13.52959490 rev/day
Decay rate:        3.5e-07 rev/day^2
Epoch rev:           72188
Checksum:              353

Satellite: SO-33
Catalog number: 25509
Epoch time:      11089.81735985
Element set:    0935
Inclination:      031.4369 deg
RA of node:       327.5592 deg
Eccentricity:    0.0354340
Arg of perigee:   276.1724 deg
Mean anomaly:     079.8653 deg
Mean motion:   14.28375892 rev/day
Decay rate:        8.7e-07 rev/day^2
Epoch rev:           64906
Checksum:              354

Satellite: RS-22
Catalog number: 27939
Epoch time:      11090.62631783
Element set:     123
Inclination:      097.8569 deg
RA of node:       308.2927 deg
Eccentricity:    0.0012622
Arg of perigee:   228.3379 deg
Mean anomaly:     131.6753 deg
Mean motion:   14.63537073 rev/day
Decay rate:       3.84e-06 rev/day^2
Epoch rev:           40099
Checksum:              321

Satellite: VO-52
Catalog number: 28650
Epoch time:      11089.84369595
Element set:     755
Inclination:      097.6507 deg
RA of node:       136.4504 deg
Eccentricity:    0.0028169
Arg of perigee:   059.5472 deg
Mean anomaly:     300.8509 deg
Mean motion:   14.81963676 rev/day
Decay rate:      1.061e-05 rev/day^2
Epoch rev:           31914
Checksum:              339

Satellite: SO-67
Catalog number: 35870
Epoch time:      11090.59020259
Element set:     697
Inclination:      097.2902 deg
RA of node:       136.4917 deg
Eccentricity:    0.0003490
Arg of perigee:   142.4985 deg
Mean anomaly:     006.6038 deg
Mean motion:   15.21505057 rev/day
Decay rate:      2.209e-05 rev/day^2
Epoch rev:            8514
Checksum:              304

Satellite: HO-68
Catalog number: 36122
Epoch time:      11090.71063023
Element set:     243
Inclination:      100.4231 deg
RA of node:       152.6715 deg
Eccentricity:    0.0007968
Arg of perigee:   044.9174 deg
Mean anomaly:     315.2579 deg
Mean motion:   13.16284977 rev/day
Decay rate:       -4.4e-07 rev/day^2
Epoch rev:            6204
Checksum:              279

/EX
SB KEPS @ AMSAT  $ORB11090.D
Orbital Elements  11090.MICROS

HR AMSAT ORBITAL ELEMENTS FOR THE MICROSATS
FROM WA5QGD FORT WORTH,TX March 31, 2011
Send Subscribe/unsubscribe to KEPS at http://www.amsat.org/mailman/listinfo/kep
BID: ORB11090.D
TO ALL RADIO AMATEURS BT

Satellite: UO-11
Catalog number: 14781
Epoch time:      11090.79248775
Element set:     509
Inclination:      098.0144 deg
RA of node:       147.7161 deg
Eccentricity:    0.0009823
Arg of perigee:   033.9634 deg
Mean anomaly:     326.2205 deg
Mean motion:   14.79918136 rev/day
Decay rate:       4.16e-06 rev/day^2
Epoch rev:           45434
Checksum:              310

Satellite: AO-16
Catalog number: 20439
Epoch time:      11090.80831664
Element set:     153
Inclination:      098.3758 deg
RA of node:       043.0446 deg
Eccentricity:    0.0011741
Arg of perigee:   036.2802 deg
Mean anomaly:     323.9176 deg
Mean motion:   14.31904779 rev/day
Decay rate:       1.13e-06 rev/day^2
Epoch rev:           10654
Checksum:              284

Satellite: LO-19
Catalog number: 20442
Epoch time:      11089.92184228
Element set:    0064
Inclination:      098.3383 deg
RA of node:       046.8439 deg
Eccentricity:    0.0012546
Arg of perigee:   033.1291 deg
Mean anomaly:     327.0672 deg
Mean motion:   14.32131950 rev/day
Decay rate:       1.99e-06 rev/day^2
Epoch rev:           10659
Checksum:              298

Satellite: AO-27
Catalog number: 22825
Epoch time:      11089.88793736
Element set:    0794
Inclination:      098.5233 deg
RA of node:       035.9838 deg
Eccentricity:    0.0009023
Arg of perigee:   141.2070 deg
Mean anomaly:     218.9754 deg
Mean motion:   14.29334581 rev/day
Decay rate:       2.01e-06 rev/day^2
Epoch rev:           91300
Checksum:              315

Satellite: IO-26
Catalog number: 22826
Epoch time:      11089.97168613
Element set:    0524
Inclination:      098.5189 deg
RA of node:       036.5675 deg
Eccentricity:    0.0009479
Arg of perigee:   135.6890 deg
Mean anomaly:     224.5048 deg
Mean motion:   14.29594388 rev/day
Decay rate:        5.7e-07 rev/day^2
Epoch rev:           91313
Checksum:              350

Satellite: GO-32
Catalog number: 25397
Epoch time:      11090.43707719
Element set:     442
Inclination:      098.3228 deg
RA of node:       087.1711 deg
Eccentricity:    0.0002046
Arg of perigee:   118.6822 deg
Mean anomaly:     241.4561 deg
Mean motion:   14.23201279 rev/day
Decay rate:        8.5e-07 rev/day^2
Epoch rev:           66090
Checksum:              286

